Tracking 30743 objects as of 21-Jun-2025
HD Live streaming from Space Station
objects crossing your sky now

STARLINK-4332

Track STARLINK-4332 now!
10-day predictions
STARLINK-4332 is classified as:


NORAD ID: 53190
Int'l Code: 2022-084B
Perigee: 568.0 km
Apogee: 572.3 km
Inclination: 97.7 °
Period: 95.9 minutes
Semi major axis: 6941 km
RCS: Unknown
Launch date: July 22, 2022
Source: United States (US)
Launch site: AIR FORCE WESTERN TEST RANGE (AFWTR)
Your satellite tracking list
Your tracking list is empty




NASA's NSSDC Master Catalog

Two Line Element Set (TLE):
1 53190U 22084B   25171.40399686 -.00000239  00000-0 -13985-4 0  9991
2 53190  97.6552 232.9577 0003105 170.7976 189.3305 15.01260538160631
Source of the keplerian elements: AFSPC